CAPE
0 0 0 0 0 0 0 0 0 0 0 0 0 0 3 40 49 37 336 715 1079 1302 1371 1194 931 1099 1313 1507 1420 1251 1147 983 699 553 631 586 617 500 303 192 153 90 28 38 42 37 14 9 1
0 0 0 0 0 0 0 0 0 0 0 0 11 96 54 20 246 642 663 754 1307 1366 1317 1232 1027 1211 1445 1486 1469 1348 1277 1067 724 758 696 566 455 309 203 127 19 3 0 9 13 17 18 9 0
0 0 0 0 0 0 0 0 0 0 0 0 13 85 121 18 229 653 1013 772 1325 1338 1182 1015 598 499 1393 1442 1364 1402 1292 1058 834 694 607 381 383 287 177 100 29 6 3 5 8 7 13 10 0
0 0 0 0 0 0 0 0 0 0 0 0 46 35 116 57 379 687 884 916 1193 1021 581 985 898 900 1012 1477 1351 1235 1087 917 735 569 357 300 367 246 136 73 7 28 12 22 13 8 2 0 0
0 0 0 0 0 0 0 0 0 0 0 0 0 0 0 17 459 497 664 972 1142 998 818 804 757 745 704 939 1214 1108 872 637 488 308 205 320 235 140 96 127 161 100 190 100 4 2 0 0 0
0 0 0 0 0 0 0 0 0 0 0 0 0 1 7 82 294 276 583 891 677 746 769 746 572 612 725 659 519 483 645 593 422 287 217 258 143 98 86 15 2 45 63 81 0 0 0 0 0
0 0 0 0 0 0 0 0 0 0 0 0 17 9 56 39 43 105 512 933 558 514 553 611 631 648 511 540 337 236 365 474 351 206 244 152 93 86 35 0 0 89 69 0 0 0 0 0 0
0 0 0 0 0 0 0 0 0 0 0 0 43 13 4 8 35 176 421 568 747 553 595 410 570 405 389 372 199 54 138 195 125 205 190 130 125 81 0 0 0 98 49 0 0 0 0 0 0
0 0 0 0 0 0 0 0 0 0 0 2 72 58 28 9 93 214 294 259 214 104 215 451 391 151 123 151 144 30 8 20 34 129 184 141 164 27 0 0 16 48 0 0 0 0 0 0 0
0 0 0 0 0 0 0 0 0 0 0 0 10 37 14 17 53 103 263 176 223 225 241 206 109 25 66 8 1 0 1 0 5 81 121 133 60 1 0 0 0 5 2 0 0 0 0 0 0
0 0 0 0 0 0 0 0 0 0 0 0 0 0 3 8 22 31 21 72 144 155 177 70 69 40 29 52 30 19 7 0 3 35 122 57 14 0 0 0 0 10 0 0 0 0 0 0 0
0 0 0 0 0 0 0 0 0 0 0 0 0 0 2 6 12 20 2 22 73 131 83 82 23 33 8 18 3 21 9 32 43 56 116 36 0 0 0 0 0 0 4 11 0 0 0 0 0
0 0 0 0 0 0 0 0 0 0 0 0 0 0 0 0 0 0 0 6 10 48 67 1 8 1 1 1 0 3 0 0 26 97 62 0 0 0 0 0 0 0 0 0 0 0 0 0 0
0 0 0 0 0 0 0 0 0 0 0 0 0 0 0 0 0 0 0 0 2 5 9 1 3 3 3 2 1 2 3 32 57 82 38 3 0 0 0 0 0 0 0 0 0 0 0 0 0
0 0 0 0 0 0 0 0 0 0 0 0 0 0 0 0 0 0 1 0 2 1 1 3 3 2 1 0 0 0 3 14 37 61 34 0 0 0 0 0 0 0 0 0 0 0 0 0 0
0 0 0 0 0 0 0 0 0 0 0 0 0 0 0 0 0 0 0 0 0 2 4 4 2 2 4 0 0 4 17 16 45 52 52 16 6 0 0 0 0 0 0 0 0 0 0 0 0
0 0 0 0 0 0 0 0 0 0 0 0 0 0 0 0 0 0 2 0 0 0 2 2 1 1 3 1 3 2 32 21 17 15 13 17 0 0 0 0 0 0 0 0 0 0 0 0 0
0 0 0 0 0 0 0 0 0 0 0 0 0 0 0 0 0 0 0 0 0 0 0 1 0 1 0 1 1 0 8 26 12 7 14 19 9 1 0 0 0 0 1 0 0 0 0 0 0
0 0 0 0 0 0 0 0 0 0 0 0 0 0 0 0 0 0 1 1 0 1 1 2 0 1 0 0 3 0 0 0 16 4 17 21 12 1 0 0 0 0 0 0 4 2 0 0 0
0 0 0 0 0 0 0 0 0 0 0 0 0 0 0 0 0 0 0 0 1 2 3 2 1 1 1 1 0 0 0 0 0 0 0 1 22 10 0 0 0 0 0 6 4 8 16 4 0
0 0 0 0 0 0 0 0 0 0 0 0 0 0 0 0 0 0 0 1 0 1 2 2 2 1 1 1 0 1 0 0 0 0 0 0 21 21 17 1 7 7 7 13 30 23 21 84 2
0 0 0 0 0 0 0 0 0 0 0 0 0 0 0 0 0 0 0 0 0 0 0 3 2 1 3 0 0 0 0 0 0 0 0 0 15 30 47 44 53 64 103 123 63 52 84 89 84
0 0 0 0 0 0 0 0 0 0 0 0 0 0 0 0 0 0 0 0 0 0 0 3 3 2 0 1 0 0 1 0 0 0 0 0 1 27 57 72 58 57 50 72 82 81 45 54 68
0 0 0 0 0 0 0 0 0 0 0 0 0 0 0 0 0 0 0 0 0 0 0 3 0 0 0 0 0 0 0 0 0 0 0 0 2 12 21 34 43 55 45 43 74 64 57 26 10
0 0 0 0 0 0 0 0 0 0 0 0 0 0 0 0 0 0 0 0 0 0 0 0 1 0 1 1 0 0 0 0 0 0 0 0 0 0 1 19 26 21 3 6 10 9 12 15 16
0 0 0 0 0 0 0 0 0 0 0 0 0 0 0 0 0 0 0 0 0 0 0 0 0 0 2 1 0 0 0 0 0 0 0 0 0 0 0 0 0 1 0 4 0 3 6 14 12
0 0 0 0 0 0 0 0 0 0 0 0 0 0 0 0 0 0 0 0 0 0 0 0 0 0 1 1 0 0 0 0 0 0 0 0 0 0 0 0 0 0 1 1 0 3 0 10 19
0 0 0 0 0 0 0 0 0 0 0 0 0 0 0 0 0 0 0 0 0 0 0 0 0 0 0 0 0 0 0 0 0 0 0 0 0 0 0 0 0 0 0 0 0 0 0 1 6
0 0 0 0 0 0 0 0 0 0 0 0 0 0 0 0 0 0 0 0 0 0 0 0 0 0 0 0 0 0 0 0 0 0 0 0 0 0 0 0 0 0 0 0 0 0 0 2 4
0 0 0 0 0 0 0 0 0 0 0 0 0 0 0 0 0 0 0 0 0 0 0 0 0 0 0 0 0 0 0 0 0 0 0 0 0 0 0 0 0 0 0 0 0 0 0 0 1
CIN
-0 -0 -0 -0 -0 -0 -0 -0 -0 -0 -0 -0 -0 -0 -20 -131 -64 -28 -260 -146 -51 -9 -1 -12 -53 -35 -47 -33 -36 -48 -46 -60 -83 -83 -61 -23 -0 -1 -10 -2 -1 -9 -83 -120 -120 -184 -1 -0 -0
-0 -0 -0 -0 -0 -0 -0 -0 -0 -0 -0 -0 -200 -147 -119 -47 -200 -138 -140 -131 -36 -9 -2 -8 -31 -8 -17 -31 -41 -43 -27 -29 -76 -42 -23 -13 -0 -6 -15 -2 -22 -158 -0 -0 -0 -0 -0 -0 -0
-0 -0 -0 -0 -0 -0 -0 -0 -0 -0 -0 -0 -107 -188 -134 -99 -230 -162 -87 -137 -14 -6 -13 -57 -48 -28 -31 -31 -57 -27 -5 -29 -42 -43 -16 -18 -0 -1 -1 -2 -15 -91 -0 -0 -0 -0 -0 -0 -0
-0 -0 -0 -0 -0 -0 -0 -0 -0 -0 -0 -0 -136 -81 -192 -276 -202 -201 -140 -145 -48 -75 -117 -68 -42 -35 -58 -23 -48 -35 -35 -22 -26 -28 -37 -27 -0 -1 -5 -5 -1 -30 -0 -0 -0 -0 -0 -0 -0
-0 -0 -0 -0 -0 -0 -0 -0 -0 -0 -0 -0 -6 -0 -0 -252 -232 -235 -192 -101 -67 -72 -85 -86 -81 -59 -68 -42 -35 -38 -38 -65 -50 -61 -80 -3 -2 -7 -5 -2 -4 -8 -1 -14 -0 -0 -0 -0 -0
-0 -0 -0 -0 -0 -0 -0 -0 -0 -0 -0 -0 -0 -21 -69 -316 -232 -240 -176 -94 -132 -91 -72 -57 -77 -60 -41 -31 -43 -60 -27 -15 -18 -17 -19 -6 -29 -8 -8 -10 -1 -5 -2 -6 -0 -0 -0 -0 -0
-0 -0 -0 -0 -0 -0 -0 -0 -0 -0 -0 -0 -183 -91 -163 -234 -266 -256 -139 -66 -134 -120 -75 -58 -68 -26 -37 -12 -42 -63 -25 -9 -10 -19 -0 -50 -22 -4 -20 -0 -0 -1 -6 -0 -0 -0 -0 -0 -0
-0 -0 -0 -0 -0 -0 -0 -0 -0 -0 -0 -9 -212 -75 -64 -250 -248 -176 -101 -70 -34 -58 -37 -53 -24 -36 -7 -9 -27 -43 -10 -6 -6 -2 -1 -19 -4 -8 -0 -0 -0 -5 -19 -0 -0 -0 -0 -0 -0
-0 -0 -0 -0 -0 -0 -0 -0 -0 -0 -0 -113 -201 -226 -261 -287 -185 -119 -76 -80 -76 -127 -75 -29 -6 -76 -38 -26 -1 -7 -27 -4 -3 -4 -4 -14 -0 -23 -0 -0 -20 -34 -0 -0 -0 -0 -0 -0 -0
-0 -0 -0 -0 -0 -0 -0 -0 -0 -0 -0 -0 -176 -273 -299 -225 -144 -89 -37 -58 -46 -47 -43 -59 -50 -7 -5 -32 -0 -0 -10 -1 -7 -4 -2 -12 -55 -29 -0 -0 -0 -12 -81 -0 -0 -0 -0 -0 -0
-0 -0 -0 -0 -0 -0 -0 -0 -0 -0 -0 -0 -0 -0 -316 -245 -153 -100 -73 -63 -53 -49 -30 -114 -67 -28 -23 -27 -33 -17 -5 -0 -6 -3 -8 -33 -133 -0 -0 -0 -0 -101 -0 -0 -0 -0 -0 -0 -0
-0 -0 -0 -0 -0 -0 -0 -0 -0 -0 -0 -0 -0 -0 -276 -249 -192 -160 -40 -127 -63 -51 -63 -60 -92 -58 -28 -32 -27 -1 -0 -0 -9 -6 -37 -117 -0 -0 -0 -0 -0 -0 -98 -112 -0 -0 -0 -0 -0
-0 -0 -0 -0 -0 -0 -0 -0 -0 -0 -0 -0 -0 -0 -0 -0 -0 -0 -0 -219 -166 -94 -100 -0 -53 -0 -0 -0 -0 -0 -0 -0 -19 -16 -63 -0 -0 -0 -0 -0 -0 -0 -0 -0 -0 -0 -0 -0 -0
-0 -0 -0 -0 -0 -0 -0 -0 -0 -0 -0 -0 -0 -0 -0 -0 -0 -0 -0 -0 -83 -56 -74 -16 -0 -0 -0 -0 -0 -0 -0 -3 -12 -29 -100 -150 -0 -0 -0 -0 -0 -0 -0 -0 -0 -0 -0 -0 -0
-0 -0 -0 -0 -0 -0 -0 -0 -0 -0 -0 -0 -0 -0 -0 -0 -0 -0 -0 -0 -0 -0 -0 -13 -0 -0 -0 -0 -0 -0 -1 -6 -11 -34 -88 -7 -0 -0 -0 -0 -0 -0 -0 -0 -0 -0 -0 -0 -0
-0 -0 -0 -0 -0 -0 -0 -0 -0 -0 -0 -0 -0 -0 -0 -0 -0 -0 -0 -0 -0 -1 -3 -22 -7 -0 -0 -0 -0 -0 -1 -5 -2 -9 -54 -139 -142 -0 -0 -0 -0 -0 -0 -0 -0 -0 -0 -0 -0
-0 -0 -0 -0 -0 -0 -0 -0 -0 -0 -0 -0 -0 -0 -0 -0 -0 -0 -0 -0 -0 -0 -1 -3 -0 -0 -0 -0 -0 -0 -13 -0 -2 -41 -67 -120 -0 -0 -0 -0 -0 -0 -0 -0 -0 -0 -0 -0 -0
-0 -0 -0 -0 -0 -0 -0 -0 -0 -0 -0 -0 -0 -0 -0 -0 -0 -0 -0 -0 -0 -1 -0 -0 -0 -0 -0 -0 -0 -0 -0 -7 -9 -26 -68 -119 -135 -129 -0 -0 -0 -0 -134 -0 -0 -0 -0 -0 -0
-0 -0 -0 -0 -0 -0 -0 -0 -0 -0 -0 -0 -0 -0 -0 -0 -0 -0 -0 -0 -0 -0 -0 -0 -0 -0 -0 -0 -0 -0 -0 -0 -9 -55 -72 -125 -112 -40 -0 -0 -0 -0 -0 -43 -149 -172 -0 -0 -0
-0 -0 -0 -0 -0 -0 -0 -0 -0 -0 -0 -0 -0 -0 -0 -0 -0 -0 -0 -0 -0 -0 -0 -0 -0 -0 -0 -0 -0 -0 -0 -0 -0 -0 -1 -17 -94 -123 -104 -0 -81 -0 -0 -119 -122 -170 -174 -102 -0
-0 -0 -0 -0 -0 -0 -0 -0 -0 -0 -0 -0 -0 -0 -0 -0 -0 -0 -0 -0 -0 -0 -0 -1 -0 -0 -0 -0 -0 -1 -0 -0 -0 -0 -0 -10 -52 -77 -94 -46 -70 -127 -108 -42 -131 -154 -131 -69 -57
-0 -0 -0 -0 -0 -0 -0 -0 -0 -0 -0 -0 -0 -0 -0 -0 -0 -0 -0 -0 -0 -0 -0 -0 -0 -0 -0 -0 -0 -0 -0 -0 -0 -0 -0 -0 -41 -52 -58 -51 -58 -77 -75 -82 -80 -74 -77 -73 -63
-0 -0 -0 -0 -0 -0 -0 -0 -0 -0 -0 -0 -0 -0 -0 -0 -0 -0 -0 -0 -0 -0 -0 -0 -0 -0 -0 -0 -0 -0 -0 -0 -0 -0 -0 -0 -18 -42 -35 -30 -37 -19 -49 -55 -38 -66 -99 -93 -68
-0 -0 -0 -0 -0 -0 -0 -0 -0 -0 -0 -0 -0 -0 -0 -0 -0 -0 -0 -0 -0 -0 -0 -0 -0 -0 -0 -0 -0 -0 -0 -0 -0 -0 -0 -0 -42 -35 -35 -17 -23 -24 -43 -51 -69 -85 -83 -104 -95
-0 -0 -0 -0 -0 -0 -0 -0 -0 -0 -0 -0 -0 -0 -0 -0 -0 -0 -0 -0 -0 -0 -0 -0 -0 -0 -0 -0 -0 -0 -0 -0 -0 -0 -0 -0 -0 -0 -68 -64 -61 -54 -70 -88 -97 -100 -112 -92 -78
-0 -0 -0 -0 -0 -0 -0 -0 -0 -0 -0 -0 -0 -0 -0 -0 -0 -0 -0 -0 -0 -0 -0 -0 -0 -0 -0 -0 -0 -0 -0 -0 -0 -0 -0 -0 -0 -0 -0 -0 -8 -9 -0 -85 -33 -109 -114 -113 -86
-0 -0 -0 -0 -0 -0 -0 -0 -0 -0 -0 -0 -0 -0 -0 -0 -0 -0 -0 -0 -0 -0 -0 -0 -0 -0 -0 -0 -0 -0 -0 -0 -0 -0 -0 -0 -0 -0 -0 -0 -0 -0 -80 -54 -0 -93 -0 -102 -64
-0 -0 -0 -0 -0 -0 -0 -0 -0 -0 -0 -0 -0 -0 -0 -0 -0 -0 -0 -0 -0 -0 -0 -0 -0 -0 -0 -0 -0 -0 -0 -0 -0 -0 -0 -0 -0 -0 -0 -0 -0 -0 -0 -0 -0 -0 -0 -0 -77
-0 -0 -0 -0 -0 -0 -0 -0 -0 -0 -0 -0 -0 -0 -0 -0 -0 -0 -0 -0 -0 -0 -0 -0 -0 -0 -0 -0 -0 -0 -0 -0 -0 -0 -0 -0 -0 -0 -0 -0 -0 -0 -0 -0 -0 -0 -2 -16 -48
-0 -0 -0 -0 -0 -0 -0 -0 -0 -0 -0 -0 -0 -0 -0 -0 -0 -0 -0 -0 -0 -0 -0 -0 -0 -0 -0 -0 -0 -0 -0 -0 -0 -0 -0 -0 -0 -0 -0 -0 -0 -0 -0 -0 -0 -0 -0 -0 -1
Wind_Speed
14 15 16 17 17 18 19 19 18 20 19 16 17 17 17 17 20 25 18 10 5 2 5 5 7 5 4 7 10 10 10 9 11 10 12 7 7 8 8 9 12 14 15 16 18 18 19 19 18
14 15 17 17 18 21 20 17 18 16 16 18 16 17 17 18 14 15 15 10 6 5 4 6 6 8 7 10 10 11 10 9 10 10 11 8 7 7 9 11 13 14 16 17 18 18 18 18 19
15 16 16 18 18 19 19 16 17 17 15 15 18 15 15 17 15 14 16 11 6 4 6 7 4 9 8 9 11 10 8 7 10 11 10 8 7 8 9 11 13 16 18 19 18 18 18 18 18
14 16 17 17 18 15 16 16 14 17 17 15 18 15 16 15 15 14 14 12 6 2 3 6 2 8 14 11 11 10 9 10 9 9 10 9 9 9 9 11 12 14 17 18 17 16 17 16 17
15 16 17 16 17 16 13 11 12 14 16 17 16 18 15 14 11 14 16 11 6 5 2 3 4 6 8 12 11 9 12 11 12 10 13 10 11 10 11 9 9 11 14 15 16 17 18 17 17
15 15 17 15 16 16 14 12 13 12 15 16 15 16 18 17 13 16 18 13 11 10 3 4 6 7 9 9 9 9 11 12 13 12 13 12 12 12 10 9 8 11 14 15 16 16 17 17 17
14 15 16 14 15 16 15 14 14 14 15 15 16 17 21 19 16 18 16 17 12 7 5 5 8 10 12 12 10 10 9 9 11 13 14 14 14 13 11 9 9 13 14 16 15 16 16 16 16
12 14 15 12 13 16 14 13 14 13 14 14 16 17 22 21 19 18 13 14 13 13 14 12 13 19 16 12 12 11 10 12 14 15 13 14 15 14 11 9 10 14 15 15 15 17 16 16 16
11 15 14 13 7 14 15 14 14 15 13 14 15 20 23 22 19 17 13 14 11 10 7 4 9 18 21 19 12 10 11 11 15 16 15 15 15 13 12 9 12 15 14 14 15 15 15 15 14
10 14 11 8 5 14 12 10 10 13 12 15 19 20 18 19 19 16 14 10 9 8 6 7 9 6 8 9 10 11 10 16 19 13 15 13 13 14 12 10 11 14 13 13 13 13 15 16 14
9 11 11 9 4 3 12 9 11 11 5 8 17 18 16 16 16 14 11 9 8 7 5 4 8 16 13 12 9 11 15 21 14 16 13 13 13 14 12 10 9 10 11 10 10 11 9 12 10
13 7 12 16 8 8 8 13 9 6 13 16 18 16 13 13 13 13 12 10 8 9 8 7 9 12 11 11 8 5 11 13 14 17 14 14 14 15 14 11 9 8 7 8 8 7 8 9 10
15 9 15 9 9 2 9 4 2 5 9 15 16 15 12 13 14 14 13 11 10 9 8 7 6 8 6 9 6 6 15 14 19 13 15 14 16 20 15 11 9 7 7 6 7 8 8 9 9
19 14 16 25 6 6 5 11 8 2 9 12 12 12 11 11 12 12 11 10 9 9 9 10 5 4 4 7 8 6 9 15 15 14 14 16 15 15 15 12 9 7 6 4 4 7 5 6 6
23 25 29 21 20 17 9 7 1 2 7 10 12 10 10 10 11 11 12 11 10 10 11 11 8 7 8 5 10 10 9 11 25 20 16 16 15 14 13 11 9 7 6 5 2 4 3 5 4
22 22 24 19 12 17 11 18 2 15 4 5 9 9 9 9 9 10 12 11 11 11 12 11 8 7 11 11 9 8 8 16 13 11 17 20 16 13 13 11 9 6 6 4 2 5 3 4 4
22 27 19 25 17 13 14 24 14 16 9 5 6 7 6 9 9 9 10 11 11 11 11 12 10 1 10 5 7 9 11 15 13 21 16 18 17 15 14 12 9 7 6 4 3 2 3 3 5
24 21 24 20 17 16 14 25 23 11 8 3 4 6 5 6 6 8 9 10 11 11 11 11 13 7 5 4 7 6 9 11 11 14 14 18 16 15 13 11 10 7 6 4 6 3 6 6 6
22 25 25 23 19 27 22 17 30 16 6 3 4 2 3 7 6 7 8 9 10 11 12 12 15 15 6 8 9 8 12 12 12 13 13 15 15 15 14 11 10 8 8 7 7 6 7 10 9
24 27 28 32 27 18 29 26 26 12 3 2 3 4 1 6 7 4 6 7 9 11 12 14 15 17 19 10 9 9 11 16 16 14 15 17 17 16 14 13 13 12 11 10 11 12 12 13 14
26 24 27 30 28 27 31 25 20 21 12 5 0 2 4 1 0 1 4 6 8 11 12 14 16 18 19 17 10 5 11 14 16 19 18 18 18 16 13 14 17 15 15 14 12 12 15 16 18
34 22 27 32 28 29 22 30 23 27 18 5 5 4 2 3 2 2 6 7 9 12 13 14 16 16 17 18 17 17 14 11 16 17 16 16 18 18 16 16 13 14 13 16 14 21 17 19 25
30 22 22 26 28 29 20 30 23 21 20 12 10 6 5 1 6 7 10 10 11 11 14 14 15 16 15 16 18 18 19 15 11 11 14 16 21 20 21 18 16 12 16 29 26 23 22 25 25
23 20 20 22 24 31 17 23 30 18 11 2 15 5 5 4 8 10 9 10 11 12 13 16 16 17 16 16 18 20 22 23 18 17 23 25 24 29 33 15 17 20 26 31 29 29 21 22 23
21 21 29 30 28 31 19 14 22 27 12 14 25 29 13 1 7 8 11 13 13 15 16 16 18 19 20 19 19 20 22 22 22 21 24 23 22 23 28 23 17 33 34 30 26 24 24 25 24
27 25 27 32 31 31 22 22 21 23 24 24 22 27 26 21 1 7 13 14 16 15 17 15 16 18 18 17 19 19 21 23 24 26 24 24 25 23 13 17 25 38 34 29 27 27 28 27 24
23 26 23 29 27 30 27 24 28 30 28 25 24 27 28 26 10 4 6 13 14 15 16 16 14 15 15 16 15 16 18 21 22 23 21 19 17 15 14 13 14 17 20 25 28 31 32 29 24
25 16 23 26 32 37 32 30 22 21 28 26 28 29 28 26 20 6 6 10 13 14 13 15 14 14 14 16 14 14 16 18 19 20 22 22 20 18 18 17 18 22 23 22 23 24 29 26 26
22 25 25 25 29 35 39 32 22 23 24 22 26 25 27 27 20 12 10 10 8 8 12 13 14 14 13 13 13 13 14 15 17 18 19 19 17 16 17 19 19 19 19 19 20 22 27 27 28
21 23 29 34 32 30 33 37 28 26 26 29 31 29 29 27 21 15 8 8 7 8 9 12 11 13 13 13 13 14 14 15 16 19 20 18 20 19 20 20 21 23 22 26 24 24 23 27 29
Wind_Direction
33 29 22 13 359 1 346 352 354 350 354 10 358 355 351 347 336 331 355 17 32 130 160 200 224 242 212 157 144 140 137 140 132 137 125 150 127 120 112 106 101 95 90 86 85 84 82 79 74
34 23 13 4 351 338 347 359 354 358 7 5 7 360 354 346 352 351 357 354 68 134 168 166 191 208 167 143 144 136 136 134 130 143 138 159 138 132 117 113 105 99 95 93 90 88 85 83 79
27 18 6 355 352 346 348 3 3 7 6 9 3 11 4 357 360 355 344 338 334 145 163 170 175 206 194 170 141 140 144 138 135 142 152 159 161 132 126 119 109 104 102 99 95 91 86 83 80
19 9 6 345 347 3 359 2 11 5 10 12 1 5 357 1 3 356 350 347 323 232 162 161 222 162 141 153 148 146 139 135 142 145 166 178 157 147 140 125 116 110 105 98 95 90 87 84 78
9 4 348 344 350 359 14 19 15 12 8 7 13 3 6 13 21 2 340 350 322 293 183 187 196 198 161 150 150 154 145 140 138 165 187 167 156 159 143 138 127 113 106 101 97 91 89 83 80
355 360 343 340 353 359 16 34 15 14 6 6 11 7 2 12 19 2 340 352 324 296 219 203 178 189 214 199 184 166 153 147 143 146 178 169 170 159 153 148 134 115 109 104 98 92 87 84 82
346 347 340 343 347 1 12 19 15 3 355 0 1 1 355 3 9 353 352 335 334 306 292 246 237 233 221 206 202 184 176 171 171 161 180 165 165 159 154 151 131 117 111 106 100 93 88 84 82
349 347 340 341 349 355 16 17 8 4 359 7 358 357 351 357 0 354 1 353 339 301 282 281 271 263 239 227 213 215 201 171 159 173 177 164 167 160 161 150 131 120 115 108 100 94 89 85 83
348 334 338 333 7 4 10 16 9 8 2 2 353 343 341 348 358 1 4 349 355 346 344 316 278 277 263 242 207 207 190 183 178 156 155 168 182 167 163 160 133 128 120 113 105 96 90 84 80
333 327 341 354 74 4 11 15 21 8 6 356 344 342 1 355 359 9 9 11 8 6 53 358 334 360 233 201 200 191 177 198 199 163 167 170 171 182 175 161 138 129 125 119 106 97 92 85 78
329 322 330 340 157 52 7 15 15 11 21 12 353 352 8 9 15 36 40 52 49 24 53 64 80 121 109 148 194 204 207 217 182 161 172 169 165 182 173 166 142 135 133 121 109 100 80 81 71
314 318 319 323 353 5 5 4 7 7 354 3 355 2 22 26 32 45 46 61 82 74 81 107 103 117 116 127 203 210 138 178 172 156 165 166 183 186 187 188 171 150 154 136 118 96 80 76 68
305 317 317 325 335 284 354 324 286 225 356 353 3 6 25 31 29 31 37 35 76 74 55 28 110 115 122 128 146 143 132 143 214 175 158 172 184 197 193 180 186 180 165 146 111 98 86 74 74
307 312 315 305 307 321 310 342 3 14 6 354 7 16 29 47 51 62 76 72 55 46 50 23 142 117 152 139 140 158 148 137 202 195 167 163 180 183 192 188 191 187 176 160 125 100 75 68 59
296 299 295 310 318 326 348 347 202 237 7 355 352 28 48 68 86 115 111 109 88 84 38 47 125 123 142 189 147 143 188 182 210 210 201 193 186 175 173 174 189 191 180 146 158 84 37 39 348
297 302 304 317 348 340 9 334 141 9 84 35 6 14 32 58 86 98 119 97 97 91 112 78 86 137 164 144 188 189 211 212 195 188 213 211 204 181 167 168 171 167 153 172 177 87 353 351 341
292 289 306 295 321 337 341 318 13 12 35 73 31 18 32 16 42 66 89 102 100 87 99 104 94 161 157 175 212 203 222 225 212 221 216 213 207 172 163 164 175 163 166 201 235 322 343 339 330
281 292 294 302 312 317 332 282 244 19 34 71 60 20 27 10 54 59 73 81 89 90 80 86 105 127 207 191 223 209 176 214 187 209 189 214 210 179 174 194 175 177 198 204 260 286 301 308 317
286 283 289 299 306 291 310 326 265 346 12 18 149 58 27 349 32 57 59 68 86 95 89 101 114 128 156 226 239 225 224 223 208 206 210 181 199 187 189 195 198 207 221 234 263 281 286 297 296
279 280 283 283 297 308 275 300 242 338 345 359 181 184 341 333 347 42 54 64 91 102 103 113 115 128 139 153 249 244 226 241 232 224 223 191 192 205 199 201 222 231 243 261 265 270 284 288 284
273 211 282 282 296 301 287 309 321 325 344 337 282 190 307 264 237 36 94 90 100 118 116 115 118 131 136 131 123 218 242 247 236 232 233 219 212 215 207 224 243 248 262 252 254 267 277 284 283
269 280 281 279 291 292 313 302 310 246 324 200 189 167 295 293 230 158 143 123 125 132 124 120 124 127 131 136 136 137 147 235 242 223 225 214 218 235 236 229 238 252 251 254 261 266 277 281 276
273 283 280 282 287 292 305 292 316 316 322 205 197 187 175 195 171 169 161 148 136 131 136 132 127 129 128 132 140 141 154 141 153 204 217 220 233 241 241 239 243 236 251 251 259 269 274 273 281
279 277 287 289 290 285 299 296 292 322 338 198 205 189 188 179 168 166 156 150 144 140 139 142 139 140 135 137 142 148 150 153 149 156 162 169 175 180 186 228 201 246 249 253 259 266 278 284 288
260 273 278 279 278 282 302 296 248 296 247 222 233 260 212 13 163 165 163 159 155 154 152 153 155 155 153 151 150 152 158 158 160 161 166 168 171 177 183 182 213 247 247 257 266 275 281 285 288
259 259 267 273 278 283 290 291 299 295 300 301 294 253 275 290 195 171 175 170 165 162 161 158 160 161 158 157 159 158 162 165 168 172 174 177 180 182 196 195 244 248 256 264 271 278 284 289 290
262 257 264 275 283 282 282 292 287 284 300 291 293 290 285 283 302 261 211 179 173 170 168 166 165 167 168 168 164 165 167 172 176 178 180 182 190 199 214 225 233 250 257 269 272 276 281 287 288
261 264 266 268 272 274 280 286 293 300 301 299 285 287 292 292 298 298 257 193 184 179 177 173 172 175 175 177 180 180 179 180 182 185 190 194 199 208 213 225 254 261 265 264 269 276 283 285 286
260 259 268 273 272 274 276 282 294 294 292 304 294 291 300 296 296 308 289 268 234 198 186 186 187 185 188 189 192 196 197 197 196 197 199 205 214 221 228 227 237 243 253 260 263 273 282 283 282
270 270 266 267 269 278 281 279 289 290 286 298 298 286 297 298 302 302 308 286 248 215 215 201 207 207 210 213 212 213 211 211 210 208 209 214 218 221 224 234 247 259 263 271 271 273 279 281 279